[Date Prev][Date Next][Thread Prev][Thread Next] - [Date Index][Thread Index][Author Index]
2 Line ISS Keps 1-1
- Subject: [sarex] 2 Line ISS Keps 1-1
- From: "Dave Larsen Ph.D." <doc@xxxxxxxxxxx>
- Date: Wed, 1 Jan 2003 02:03:48 -0800
ISS
1 25544U 98067A 03001.18336806 .00019363 00000-0 25587-3 0 5335
2 25544 51.6340 139.1101 0004451 342.6334 21.3671 15.58358974234998
----
Via the sarex mailing list at AMSAT.ORG courtesy of AMSAT-NA.
To unsubscribe, send "unsubscribe sarex" to Majordomo@amsat.org
AMSAT Home